View from above orbital plane
|
View from above satellite
|
Ground track
|
The orbit data is extracted from the following two-line orbital elements,
1 32785U 08021C 21016.22347906 .00000225 00000-0 29738-4 0 9991
2 32785 97.5946 1.1402 0013819 142.4971 217.7213 14.88611891689592
Epoch (UTC): | 16 January 2021 05:21:48 |
Eccentricity: | 0.0013819 |
inclination: | 97.5946° |
perigee height: | 592 km |
apogee height: | 612 km |
right ascension of ascending node: | 1.1402° |
argument of perigee: | 142.4971° |
revolutions per day: | 14.88611891 |
mean anomaly at epoch: | 217.7213° |
orbit number at epoch: | 68959 |
The dashed part of the orbit path shows where the satellite is in the earth's shadow,
|
|